• Em Portugal
  • Lista de países
  • Para 7 dias
  • Temperatura da água
  • Mapas de satélite
  • Mapa do tempo
  • Widgets de tempo
  • user-avatar
    Iniciar Sessão

    Previsão horária em Pstraze

    Hoje, 20 Abril, Sexta-feira

    Tempo Temperatura Precipitação Vento Pressão Humidade
    00:00 +15°C° 0 mm 1 m/s 758 mmHg 86%
    01:00 +14°C° 0 mm 1 m/s 758 mmHg 88%
    02:00 +14°C° 0 mm 1 m/s 758 mmHg 89%
    03:00 +14°C° 0 mm 1 m/s 758 mmHg 90%
    04:00 +13°C° 0 mm 2 m/s 758 mmHg 91%
    05:00 +14°C° 0 mm 2 m/s 757 mmHg 87%
    06:00 +15°C° 0 mm 1 m/s 757 mmHg 83%
    07:00 +16°C° 0 mm 1 m/s 757 mmHg 78%
    08:00 +20°C° 0 mm 1 m/s 757 mmHg 70%
    09:00 +22°C° 0 mm 1 m/s 757 mmHg 62%
    10:00 +24°C° 0 mm 2 m/s 757 mmHg 53%
    11:00 +25°C° 0 mm 2 m/s 757 mmHg 49%
    12:00 +26°C° 0 mm 2 m/s 756 mmHg 45%
    13:00 +27°C° 0 mm 2 m/s 756 mmHg 41%
    14:00 +27°C° 0 mm 2 m/s 755 mmHg 42%
    15:00 +27°C° 0 mm 2 m/s 755 mmHg 42%
    16:00 +27°C° 0 mm 2 m/s 754 mmHg 43%
    17:00 +25°C° 0 mm 2 m/s 754 mmHg 50%
    18:00 +23°C° 0 mm 2 m/s 754 mmHg 58%
    19:00 +20°C° 0 mm 2 m/s 753 mmHg 66%
    20:00 +19°C° 0 mm 2 m/s 753 mmHg 67%
    21:00 +18°C° 0 mm 2 m/s 753 mmHg 69%
    22:00 +17°C° 0 mm 2 m/s 753 mmHg 70%
    23:00 +17°C° 0 mm 2 m/s 752 mmHg 70%

    Amanhã, 21 Abril, Sábado

    Tempo Temperatura Precipitação Vento Pressão Humidade
    00:00 +17°C° 0 mm 2 m/s 752 mmHg 70%
    01:00 +16°C° 0 mm 3 m/s 752 mmHg 70%
    02:00 +16°C° 0 mm 3 m/s 752 mmHg 73%
    03:00 +16°C° 0 mm 2 m/s 752 mmHg 76%
    04:00 +15°C° 0 mm 2 m/s 752 mmHg 78%
    05:00 +16°C° 0 mm 2 m/s 752 mmHg 77%
    06:00 +17°C° 0 mm 2 m/s 752 mmHg 75%
    07:00 +17°C° 0 mm 2 m/s 752 mmHg 74%
    08:00 +19°C° 0 mm 2 m/s 752 mmHg 67%
    09:00 +20°C° 0 mm 3 m/s 752 mmHg 61%
    10:00 +22°C° 0 mm 3 m/s 752 mmHg 54%
    11:00 +22°C° 0 mm 3 m/s 752 mmHg 51%
    12:00 +24°C° 0 mm 3 m/s 752 mmHg 49%
    13:00 +25°C° 0 mm 4 m/s 752 mmHg 46%
    14:00 +23°C° 0 mm 4 m/s 752 mmHg 46%
    15:00 +23°C° 0 mm 4 m/s 752 mmHg 45%
    16:00 +23°C° 0 mm 4 m/s 751 mmHg 45%
    17:00 +21°C° 0 mm 3 m/s 752 mmHg 51%
    18:00 +19°C° 0 mm 3 m/s 752 mmHg 57%
    19:00 +17°C° 0 mm 2 m/s 752 mmHg 63%
    20:00 +15°C° 0 mm 2 m/s 752 mmHg 65%
    21:00 +14°C° 0 mm 2 m/s 752 mmHg 67%
    22:00 +13°C° 0 mm 2 m/s 752 mmHg 69%
    23:00 +12°C° 0 mm 1 m/s 752 mmHg 70%

    Depois de amanhã, 22 Abril, Domingo

    Tempo Temperatura Precipitação Vento Pressão Humidade
    00:00 +11°C° 0 mm 1 m/s 752 mmHg 71%
    01:00 +10°C° 0 mm 1 m/s 752 mmHg 72%
    02:00 +10°C° 0 mm 1 m/s 752 mmHg 72%
    03:00 +10°C° 0 mm 1 m/s 752 mmHg 72%
    04:00 +9°C° 0 mm 1 m/s 752 mmHg 72%
    05:00 +11°C° 0 mm 1 m/s 752 mmHg 68%
    06:00 +12°C° 0 mm 1 m/s 752 mmHg 65%
    07:00 +13°C° 0 mm 1 m/s 752 mmHg 61%
    08:00 +15°C° 0 mm 1 m/s 752 mmHg 55%
    09:00 +18°C° 0 mm 1 m/s 751 mmHg 49%
    10:00 +21°C° 0 mm 1 m/s 751 mmHg 44%
    11:00 +20°C° 0 mm 0 m/s 751 mmHg 41%
    12:00 +21°C° 0 mm 0 m/s 750 mmHg 38%
    13:00 +22°C° 0 mm 0 m/s 750 mmHg 35%
    14:00 +22°C° 0 mm 0 m/s 749 mmHg 35%
    15:00 +22°C° 0 mm 0 m/s 749 mmHg 36%
    16:00 +24°C° 0 mm 1 m/s 748 mmHg 36%
    17:00 +22°C° 0 mm 1 m/s 748 mmHg 43%
    18:00 +20°C° 0 mm 1 m/s 748 mmHg 49%
    19:00 +17°C° 0 mm 2 m/s 748 mmHg 56%
    20:00 +16°C° 0 mm 2 m/s 748 mmHg 59%
    21:00 +15°C° 0 mm 2 m/s 748 mmHg 63%
    22:00 +14°C° 0 mm 2 m/s 748 mmHg 66%
    23:00 +14°C° 0 mm 2 m/s 747 mmHg 68%

    23 Abril, Segunda-feira

    Tempo Temperatura Precipitação Vento Pressão Humidade
    00:00 +14°C° 0 mm 2 m/s 747 mmHg 71%
    01:00 +13°C° 0 mm 3 m/s 747 mmHg 73%
    02:00 +14°C° 0 mm 2 m/s 746 mmHg 76%
    03:00 +14°C° 0 mm 2 m/s 746 mmHg 79%
    04:00 +14°C° 0 mm 2 m/s 745 mmHg 82%
    05:00 +14°C° 0,2 mm 3 m/s 745 mmHg 81%
    06:00 +17°C° 0,2 mm 3 m/s 745 mmHg 80%
    07:00 +18°C° 0,2 mm 3 m/s 745 mmHg 78%
    08:00 +18°C° 0,3 mm 4 m/s 745 mmHg 79%
    09:00 +18°C° 0,3 mm 4 m/s 744 mmHg 80%
    10:00 +19°C° 0,3 mm 5 m/s 744 mmHg 81%
    11:00 +19°C° 0,7 mm 5 m/s 744 mmHg 80%
    12:00 +19°C° 0,7 mm 5 m/s 744 mmHg 78%
    13:00 +19°C° 0,7 mm 6 m/s 744 mmHg 77%
    14:00 +19°C° 0,7 mm 6 m/s 744 mmHg 77%
    15:00 +19°C° 0,7 mm 6 m/s 744 mmHg 76%
    16:00 +17°C° 0,7 mm 7 m/s 744 mmHg 75%
    17:00 +16°C° 0,1 mm 6 m/s 744 mmHg 78%
    18:00 +15°C° 0,1 mm 5 m/s 745 mmHg 80%
    19:00 +13°C° 0,1 mm 4 m/s 746 mmHg 83%
    20:00 +12°C° 0 mm 4 m/s 746 mmHg 84%
    21:00 +11°C° 0 mm 4 m/s 747 mmHg 85%
    22:00 +10°C° 0 mm 3 m/s 747 mmHg 85%
    23:00 +10°C° 0 mm 3 m/s 747 mmHg 86%

    24 Abril, Terça-feira

    Tempo Temperatura Precipitação Vento Pressão Humidade
    00:00 +9°C° 0 mm 3 m/s 748 mmHg 87%
    01:00 +9°C° 0 mm 3 m/s 748 mmHg 88%
    02:00 +9°C° 0 mm 3 m/s 748 mmHg 88%
    03:00 +9°C° 0 mm 3 m/s 748 mmHg 88%
    04:00 +9°C° 0 mm 3 m/s 748 mmHg 88%
    05:00 +10°C° 0 mm 4 m/s 749 mmHg 84%
    06:00 +9°C° 0 mm 5 m/s 749 mmHg 80%
    07:00 +10°C° 0 mm 5 m/s 749 mmHg 76%
    08:00 +12°C° 0 mm 5 m/s 749 mmHg 70%
    09:00 +13°C° 0 mm 5 m/s 749 mmHg 65%
    10:00 +14°C° 0 mm 5 m/s 749 mmHg 59%
    11:00 +15°C° 0 mm 6 m/s 749 mmHg 59%
    12:00 +15°C° 0 mm 6 m/s 749 mmHg 59%
    13:00 +16°C° 0 mm 6 m/s 748 mmHg 59%
    14:00 +16°C° 0,1 mm 5 m/s 748 mmHg 62%
    15:00 +16°C° 0,1 mm 5 m/s 748 mmHg 64%
    16:00 +16°C° 0,1 mm 5 m/s 748 mmHg 67%
    17:00 +15°C° 0,1 mm 4 m/s 747 mmHg 72%
    18:00 +14°C° 0,1 mm 3 m/s 747 mmHg 77%
    19:00 +14°C° 0,1 mm 2 m/s 747 mmHg 83%
    20:00 +14°C° 0,1 mm 2 m/s 747 mmHg 85%
    21:00 +14°C° 0,1 mm 2 m/s 747 mmHg 87%
    22:00 +13°C° 0,1 mm 2 m/s 747 mmHg 90%
    23:00 +12°C° 0 mm 3 m/s 746 mmHg 88%

    25 Abril, Quarta-feira

    Tempo Temperatura Precipitação Vento Pressão Humidade
    00:00 +12°C° 0 mm 3 m/s 746 mmHg 86%
    01:00 +12°C° 0 mm 4 m/s 746 mmHg 85%
    02:00 +12°C° 0 mm 4 m/s 745 mmHg 85%
    03:00 +12°C° 0 mm 4 m/s 745 mmHg 85%
    04:00 +12°C° 0 mm 4 m/s 745 mmHg 85%
    05:00 +13°C° 0 mm 4 m/s 744 mmHg 82%
    06:00 +14°C° 0 mm 5 m/s 744 mmHg 79%
    07:00 +15°C° 0 mm 5 m/s 744 mmHg 76%
    08:00 +16°C° 0 mm 6 m/s 744 mmHg 71%
    09:00 +17°C° 0 mm 6 m/s 744 mmHg 66%
    10:00 +20°C° 0 mm 7 m/s 744 mmHg 61%
    11:00 +18°C° 0,4 mm 7 m/s 744 mmHg 62%
    12:00 +18°C° 0,4 mm 7 m/s 744 mmHg 64%
    13:00 +18°C° 0,4 mm 7 m/s 743 mmHg 65%
    14:00 +17°C° 0,4 mm 7 m/s 743 mmHg 69%
    15:00 +16°C° 0,4 mm 6 m/s 743 mmHg 72%
    16:00 +15°C° 0,4 mm 5 m/s 743 mmHg 75%
    17:00 +14°C° 0,1 mm 5 m/s 744 mmHg 77%
    18:00 +13°C° 0,1 mm 4 m/s 744 mmHg 78%
    19:00 +12°C° 0,1 mm 3 m/s 744 mmHg 79%
    20:00 +11°C° 0,2 mm 3 m/s 745 mmHg 81%
    21:00 +11°C° 0,2 mm 3 m/s 745 mmHg 83%
    22:00 +10°C° 0,2 mm 3 m/s 746 mmHg 85%
    23:00 +10°C° 0,3 mm 4 m/s 746 mmHg 87%
    Mostrar mais